Simultaneous Nadir Overpasses (SNOs) Predictions

Prediction of SNOs between GOES-16 and NOAA-19 Satellite Orbit:

Table of predicted SNOs for the next 14.0 days since TLE Epoch: 12/24/2022
Index Date Time (GOES-16) GOES-16 Lat,Lon NOAA-19 Lat,Lon Distance(km) Time Diff (sec)
1 12/24/2022 13:31:22 -0.05, -75.20 0.81, -78.95 427.97 80
2 12/25/2022 13:19:26 -0.05, -75.20 0.16, -76.04 96.06 80
3 12/26/2022 13:04:52 -0.04, -75.21 -0.55, -73.14 236.09 80
4 12/29/2022 01:27:59 0.04, -75.21 -0.60, -77.99 317.17 80
5 12/30/2022 01:13:24 0.04, -75.23 0.07, -75.09 15.95 80
6 12/31/2022 01:01:29 0.04, -75.24 0.75, -72.18 349.25 80
7 01/02/2023 13:24:28 -0.03, -75.29 0.36, -77.01 195.31 80
8 01/03/2023 13:09:53 -0.03, -75.31 -0.30, -74.10 138.26 80
9 01/04/2023 12:57:57 -0.03, -75.33 -0.96, -71.19 471.95 80
10 01/06/2023 01:32:59 0.02, -75.34 -0.81, -78.94 411.05 80
11 01/07/2023 01:21:03 0.02, -75.37 -0.12, -76.04 76.82 80
